Hourly Data Report for July 29, 2021

WINNIPEG A CS
MANITOBA
Current Station Operator: ECCC - MSC

49°55'00.000" N
97°14'58.000" W
238.70 m
502S001
71849
XWG

Download Data

Hourly Data (July 2021)
Hourly Data Report for July 29, 2021
TIME
LST
Temp Definition
°C
Dew Point Definition
°C
Rel Hum Definition
%
Precip. Amount Definition
mm

Wind Dir Definition
10's deg

Wind Spd Definition
km/h
Visibility Definition
km
Stn Press Definition
kPa
Hmdx Definition


Wind Chill Definition


Weather Definition


00:00 13.0 9.2 78 0.0 34 12   99.11     LegendNANA
01:00 10.7 8.2 84 0.0 31 11   99.14     LegendNANA
02:00 10.9 8.5 85 0.0 32 12   99.18     LegendNANA
03:00 10.2 8.2 87 0.0 31 11   99.20     LegendNANA
04:00 11.0 8.7 86 0.0 32 10   99.22     LegendNANA
05:00 11.4 9.1 85 0.0 34 15   99.27     LegendNANA
06:00 11.8 9.5 86 0.0 36 3   99.33     LegendNANA
07:00 15.1 11.4 79 0.0 33 7   99.39     LegendNANA
08:00 18.6 11.7 64 0.0 1 7   99.44     LegendNANA
09:00 21.1 12.4 57 0.0 34 8   99.46     LegendNANA
10:00 22.9 8.5 40 0.0 1 15   99.49     LegendNANA
11:00 24.0 7.6 35 0.0 35 16   99.48     LegendNANA
12:00 24.3 7.6 34 0.0 36 16   99.46 25   LegendNANA
13:00 25.7 8.2 33 0.0 1 10   99.40 26   LegendNANA
14:00 26.4 6.9 29 0.0 2 9   99.35 26   LegendNANA
15:00 27.8 6.3 26 0.0 31 16   99.30 28   LegendNANA
16:00 27.8 6.8 26 0.0 32 10   99.24 28   LegendNANA
17:00 27.8 6.8 26 0.0 26 8   99.21 28   LegendNANA
18:00 27.5 7.1 27 0.0 30 8   99.19 28   LegendNANA
19:00 26.4 8.1 31 0.0 29 3   99.17 27   LegendNANA
20:00 23.2 8.7 40 0.0 17 8   99.13     LegendNANA
21:00 21.7 8.3 42 0.0 17 13   99.13     LegendNANA
22:00 22.1 7.7 40 0.0 20 19   99.13     LegendNANA
23:00 21.5 7.7 41 0.0 20 20   99.13     LegendNANA

Notes on Data Quality.

Legend

  • E = Estimated
  • M = Missing
  • NA = Not Available*
  • [empty] = Indicates an unobserved value
Date modified: